{"data":{"norad_id":67928,"epoch":"2026-05-25T03:10:41.776608Z","epoch_age_seconds":62943,"freshness":"FRESH","line1":"1 67928U 26036AA  26145.13242797  .00011541  00000+0  42819-3 0  9990","line2":"2 67928  43.0026 173.4913 0001152 257.6926 102.3797 15.27584741 15417","mean_motion":15.27584741,"eccentricity":0.0001152,"inclination_deg":43.0026,"raan_deg":173.4913,"arg_perigee_deg":257.6926,"mean_anomaly_deg":102.3797,"bstar":0.00042819,"rev_number":1541,"period_min":94.266456148111,"perigee_km":482.24449281394,"apogee_km":483.82530681966,"semimajor_km":6861.1718998168,"source":"CELESTRAK","updated_at":"2026-05-25T13:38:21.765066Z"}}